QPF
0.00 0.01 0.01 0.00 0.00 0.00 0.00 0.01 0.01 0.01 0.01 0.02 0.02 0.01 0.01 0.01 0.02 0.02 0.02 0.02 0.02 0.02 0.02 0.03 0.04 0.06 0.09 0.11 0.12 0.12 0.12 0.12 0.13 0.14 0.14 0.12 0.09 0.06
0.00 0.01 0.01 0.00 0.00 0.01 0.01 0.01 0.01 0.02 0.01 0.01 0.01 0.01 0.01 0.01 0.01 0.02 0.03 0.03 0.02 0.02 0.02 0.02 0.03 0.04 0.05 0.07 0.09 0.11 0.11 0.11 0.11 0.11 0.11 0.10 0.10 0.08
0.00 0.00 0.00 0.00 0.00 0.00 0.01 0.01 0.01 0.01 0.01 0.01 0.01 0.01 0.01 0.01 0.01 0.01 0.02 0.04 0.04 0.03 0.02 0.02 0.02 0.03 0.04 0.05 0.07 0.10 0.11 0.11 0.10 0.09 0.09 0.09 0.09 0.07
0.00 0.00 0.00 0.00 0.01 0.00 0.00 0.01 0.01 0.01 0.01 0.01 0.01 0.01 0.01 0.02 0.01 0.01 0.01 0.02 0.04 0.04 0.04 0.03 0.03 0.03 0.03 0.03 0.04 0.06 0.09 0.10 0.10 0.09 0.08 0.07 0.07 0.08
0.00 0.00 0.00 0.00 0.01 0.01 0.01 0.01 0.00 0.00 0.01 0.01 0.01 0.01 0.01 0.01 0.02 0.01 0.01 0.02 0.02 0.02 0.03 0.03 0.02 0.02 0.02 0.02 0.03 0.04 0.07 0.08 0.09 0.08 0.08 0.08 0.06 0.06
0.00 0.00 0.00 0.00 0.01 0.01 0.01 0.01 0.01 0.01 0.01 0.01 0.00 0.01 0.01 0.01 0.02 0.02 0.02 0.02 0.01 0.01 0.01 0.01 0.01 0.01 0.01 0.02 0.02 0.03 0.05 0.07 0.08 0.08 0.08 0.07 0.07 0.07
0.00 0.00 0.00 0.00 0.00 0.00 0.00 0.01 0.01 0.01 0.01 0.01 0.01 0.01 0.01 0.02 0.02 0.02 0.02 0.02 0.02 0.01 0.01 0.01 0.02 0.02 0.02 0.02 0.01 0.01 0.02 0.04 0.05 0.06 0.07 0.08 0.08 0.08
0.00 0.00 0.00 0.00 0.00 0.00 0.00 0.00 0.01 0.01 0.02 0.02 0.02 0.02 0.02 0.02 0.03 0.02 0.02 0.02 0.02 0.02 0.02 0.02 0.02 0.03 0.04 0.03 0.02 0.01 0.01 0.02 0.03 0.04 0.06 0.06 0.07 0.08
0.01 0.01 0.00 0.00 0.00 0.00 0.00 0.00 0.00 0.00 0.00 0.01 0.02 0.02 0.02 0.03 0.04 0.03 0.03 0.03 0.03 0.03 0.03 0.02 0.02 0.02 0.02 0.02 0.01 0.01 0.01 0.01 0.01 0.02 0.04 0.05 0.05 0.06
0.00 0.01 0.00 0.00 0.00 0.00 0.00 0.01 0.01 0.01 0.01 0.01 0.02 0.02 0.03 0.04 0.05 0.04 0.04 0.03 0.02 0.02 0.03 0.02 0.02 0.02 0.02 0.03 0.01 0.01 0.01 0.01 0.02 0.02 0.03 0.03 0.03 0.04
0.00 0.00 0.00 0.00 0.00 0.00 0.00 0.00 0.01 0.01 0.01 0.01 0.01 0.01 0.01 0.01 0.01 0.02 0.03 0.03 0.02 0.02 0.03 0.03 0.02 0.03 0.03 0.03 0.02 0.01 0.01 0.01 0.01 0.02 0.02 0.03 0.03 0.05
0.01 0.01 0.00 0.00 0.00 0.00 0.00 0.01 0.01 0.01 0.02 0.02 0.02 0.01 0.01 0.01 0.00 0.00 0.02 0.03 0.03 0.02 0.02 0.04 0.03 0.04 0.03 0.03 0.03 0.03 0.02 0.02 0.02 0.02 0.03 0.03 0.03 0.04
0.01 0.01 0.01 0.00 0.00 0.00 0.00 0.00 0.01 0.01 0.02 0.02 0.02 0.02 0.02 0.02 0.02 0.02 0.02 0.03 0.03 0.02 0.03 0.05 0.05 0.05 0.05 0.05 0.05 0.05 0.04 0.04 0.04 0.04 0.04 0.04 0.05 0.05
0.00 0.01 0.01 0.00 0.00 0.00 0.00 0.00 0.00 0.00 0.00 0.01 0.02 0.02 0.02 0.02 0.03 0.03 0.03 0.03 0.03 0.03 0.04 0.05 0.05 0.05 0.06 0.06 0.06 0.07 0.06 0.05 0.05 0.05 0.06 0.07 0.06 0.06
0.00 0.00 0.00 0.00 0.00 0.00 0.00 0.00 0.00 0.00 0.01 0.01 0.02 0.02 0.03 0.03 0.03 0.03 0.04 0.04 0.04 0.02 0.02 0.03 0.04 0.05 0.06 0.05 0.05 0.07 0.08 0.07 0.06 0.05 0.06 0.07 0.08 0.07
0.00 0.00 0.00 0.00 0.00 0.00 0.00 0.01 0.01 0.01 0.01 0.01 0.02 0.02 0.03 0.03 0.03 0.03 0.04 0.04 0.04 0.02 0.02 0.02 0.03 0.04 0.05 0.05 0.06 0.06 0.07 0.08 0.07 0.07 0.06 0.07 0.08 0.09
0.00 0.00 0.00 0.00 0.00 0.01 0.01 0.02 0.02 0.01 0.01 0.01 0.02 0.02 0.03 0.03 0.02 0.03 0.04 0.04 0.04 0.03 0.03 0.05 0.05 0.05 0.05 0.06 0.07 0.06 0.06 0.07 0.07 0.08 0.08 0.07 0.07 0.07
0.00 0.00 0.00 0.01 0.01 0.01 0.01 0.01 0.02 0.02 0.02 0.03 0.03 0.03 0.03 0.03 0.03 0.03 0.03 0.03 0.03 0.04 0.04 0.05 0.06 0.07 0.06 0.05 0.04 0.05 0.06 0.07 0.08 0.08 0.08 0.08 0.08 0.07
0.00 0.00 0.00 0.01 0.01 0.01 0.01 0.01 0.01 0.02 0.03 0.03 0.03 0.03 0.03 0.03 0.03 0.03 0.03 0.03 0.03 0.03 0.05 0.06 0.07 0.07 0.06 0.05 0.05 0.04 0.06 0.08 0.10 0.11 0.09 0.08 0.08 0.08
0.00 0.00 0.00 0.01 0.01 0.01 0.01 0.02 0.02 0.02 0.02 0.03 0.04 0.04 0.04 0.04 0.04 0.03 0.04 0.04 0.04 0.05 0.05 0.06 0.07 0.07 0.07 0.08 0.08 0.08 0.06 0.08 0.10 0.12 0.12 0.11 0.09 0.09
0.01 0.01 0.01 0.01 0.01 0.02 0.02 0.02 0.02 0.03 0.04 0.05 0.06 0.06 0.05 0.05 0.05 0.05 0.06 0.06 0.04 0.05 0.06 0.06 0.08 0.07 0.08 0.10 0.09 0.07 0.09 0.08 0.10 0.12 0.15 0.15 0.13 0.10
0.01 0.02 0.02 0.02 0.02 0.03 0.03 0.04 0.04 0.04 0.05 0.06 0.06 0.06 0.05 0.05 0.05 0.06 0.07 0.07 0.06 0.06 0.06 0.08 0.09 0.08 0.08 0.08 0.07 0.08 0.09 0.10 0.09 0.09 0.10 0.14 0.15 0.13
0.02 0.03 0.02 0.03 0.03 0.03 0.04 0.04 0.04 0.04 0.05 0.05 0.06 0.06 0.06 0.05 0.05 0.05 0.06 0.06 0.07 0.07 0.08 0.09 0.10 0.09 0.08 0.09 0.09 0.10 0.10 0.11 0.11 0.10 0.10 0.09 0.10 0.10
MSLP
1020.66 1020.67 1020.67 1020.63 1020.53 1020.36 1020.13 1019.84 1019.50 1019.14 1018.79 1018.45 1018.15 1017.90 1017.68 1017.52 1017.40 1017.33 1017.30 1017.31 1017.37 1017.47 1017.61 1017.78 1017.97 1018.16 1018.35 1018.52 1018.67 1018.79 1018.89 1018.99 1019.11 1019.25 1019.43 1019.67 1019.96 1020.31
1020.66 1020.70 1020.72 1020.68 1020.59 1020.43 1020.20 1019.91 1019.57 1019.22 1018.86 1018.52 1018.20 1017.92 1017.68 1017.47 1017.30 1017.17 1017.07 1017.02 1017.02 1017.06 1017.15 1017.28 1017.44 1017.62 1017.79 1017.96 1018.10 1018.21 1018.31 1018.40 1018.49 1018.61 1018.75 1018.95 1019.20 1019.50
1020.51 1020.56 1020.58 1020.56 1020.48 1020.33 1020.12 1019.85 1019.54 1019.20 1018.86 1018.53 1018.21 1017.92 1017.65 1017.40 1017.18 1016.99 1016.83 1016.70 1016.63 1016.60 1016.63 1016.71 1016.84 1016.99 1017.16 1017.33 1017.48 1017.62 1017.74 1017.85 1017.95 1018.06 1018.19 1018.36 1018.57 1018.82
1020.24 1020.29 1020.32 1020.31 1020.25 1020.12 1019.94 1019.70 1019.42 1019.12 1018.80 1018.49 1018.18 1017.89 1017.60 1017.32 1017.05 1016.80 1016.57 1016.36 1016.21 1016.10 1016.06 1016.08 1016.16 1016.28 1016.44 1016.63 1016.81 1016.98 1017.14 1017.29 1017.43 1017.57 1017.71 1017.88 1018.06 1018.28
1019.91 1019.96 1019.99 1019.99 1019.94 1019.84 1019.69 1019.49 1019.25 1018.98 1018.70 1018.41 1018.12 1017.83 1017.53 1017.23 1016.91 1016.60 1016.30 1016.02 1015.78 1015.59 1015.46 1015.41 1015.43 1015.52 1015.66 1015.84 1016.05 1016.26 1016.48 1016.69 1016.88 1017.07 1017.24 1017.42 1017.61 1017.80
1019.57 1019.60 1019.63 1019.64 1019.62 1019.55 1019.43 1019.26 1019.06 1018.83 1018.58 1018.32 1018.04 1017.75 1017.44 1017.11 1016.76 1016.40 1016.04 1015.68 1015.36 1015.08 1014.87 1014.73 1014.68 1014.71 1014.82 1014.99 1015.20 1015.45 1015.71 1015.97 1016.23 1016.47 1016.70 1016.91 1017.11 1017.31
1019.23 1019.26 1019.30 1019.32 1019.32 1019.27 1019.18 1019.05 1018.87 1018.67 1018.44 1018.18 1017.91 1017.62 1017.30 1016.96 1016.58 1016.18 1015.77 1015.35 1014.95 1014.60 1014.30 1014.08 1013.94 1013.90 1013.95 1014.08 1014.28 1014.53 1014.82 1015.12 1015.43 1015.73 1016.01 1016.26 1016.50 1016.70
1018.90 1018.94 1018.99 1019.03 1019.04 1019.02 1018.95 1018.83 1018.67 1018.47 1018.25 1018.00 1017.72 1017.42 1017.10 1016.74 1016.35 1015.92 1015.47 1015.01 1014.56 1014.14 1013.76 1013.46 1013.24 1013.12 1013.09 1013.16 1013.32 1013.55 1013.83 1014.15 1014.48 1014.82 1015.14 1015.43 1015.70 1015.93
1018.57 1018.62 1018.68 1018.74 1018.77 1018.75 1018.69 1018.58 1018.41 1018.21 1017.98 1017.71 1017.43 1017.12 1016.78 1016.41 1016.02 1015.59 1015.13 1014.65 1014.17 1013.70 1013.27 1012.90 1012.60 1012.39 1012.28 1012.27 1012.36 1012.54 1012.78 1013.08 1013.42 1013.76 1014.10 1014.42 1014.71 1014.96
1018.20 1018.28 1018.35 1018.42 1018.45 1018.44 1018.37 1018.24 1018.06 1017.83 1017.57 1017.28 1016.98 1016.66 1016.31 1015.95 1015.56 1015.15 1014.70 1014.23 1013.75 1013.27 1012.80 1012.38 1012.02 1011.74 1011.55 1011.46 1011.46 1011.56 1011.75 1012.00 1012.29 1012.62 1012.95 1013.27 1013.57 1013.83
1017.79 1017.87 1017.96 1018.02 1018.05 1018.01 1017.92 1017.77 1017.55 1017.29 1017.00 1016.69 1016.36 1016.02 1015.68 1015.34 1014.97 1014.58 1014.17 1013.73 1013.28 1012.81 1012.35 1011.91 1011.51 1011.17 1010.91 1010.74 1010.66 1010.68 1010.78 1010.96 1011.20 1011.47 1011.77 1012.06 1012.35 1012.61
1017.30 1017.38 1017.46 1017.50 1017.50 1017.44 1017.31 1017.12 1016.87 1016.57 1016.25 1015.91 1015.57 1015.23 1014.90 1014.57 1014.24 1013.90 1013.54 1013.15 1012.74 1012.31 1011.87 1011.44 1011.03 1010.67 1010.36 1010.12 1009.97 1009.90 1009.92 1010.02 1010.18 1010.39 1010.63 1010.88 1011.12 1011.35
1016.73 1016.80 1016.84 1016.85 1016.81 1016.70 1016.53 1016.29 1016.00 1015.68 1015.33 1014.98 1014.64 1014.31 1013.99 1013.70 1013.41 1013.12 1012.81 1012.48 1012.13 1011.76 1011.36 1010.96 1010.56 1010.18 1009.85 1009.57 1009.37 1009.23 1009.18 1009.19 1009.27 1009.41 1009.57 1009.76 1009.95 1010.13
1016.08 1016.11 1016.11 1016.06 1015.96 1015.80 1015.58 1015.30 1014.99 1014.64 1014.29 1013.94 1013.61 1013.30 1013.02 1012.76 1012.51 1012.27 1012.02 1011.75 1011.45 1011.13 1010.78 1010.41 1010.04 1009.68 1009.34 1009.05 1008.80 1008.62 1008.51 1008.46 1008.47 1008.52 1008.61 1008.73 1008.85 1008.97
1015.37 1015.33 1015.26 1015.14 1014.98 1014.76 1014.50 1014.19 1013.86 1013.52 1013.18 1012.85 1012.55 1012.27 1012.03 1011.80 1011.60 1011.39 1011.18 1010.95 1010.70 1010.42 1010.11 1009.78 1009.44 1009.10 1008.77 1008.48 1008.22 1008.02 1007.86 1007.77 1007.72 1007.71 1007.74 1007.78 1007.83 1007.88
1014.58 1014.48 1014.32 1014.13 1013.90 1013.63 1013.33 1013.01 1012.68 1012.36 1012.05 1011.76 1011.50 1011.26 1011.06 1010.87 1010.69 1010.51 1010.32 1010.11 1009.88 1009.62 1009.33 1009.03 1008.72 1008.40 1008.10 1007.81 1007.56 1007.35 1007.19 1007.06 1006.98 1006.93 1006.90 1006.89 1006.88 1006.87
1013.73 1013.54 1013.31 1013.05 1012.75 1012.44 1012.12 1011.80 1011.49 1011.20 1010.93 1010.70 1010.49 1010.30 1010.13 1009.97 1009.80 1009.63 1009.44 1009.23 1008.99 1008.73 1008.46 1008.17 1007.87 1007.57 1007.29 1007.03 1006.80 1006.61 1006.44 1006.31 1006.22 1006.14 1006.08 1006.03 1005.98 1005.92
1012.80 1012.54 1012.24 1011.91 1011.57 1011.22 1010.89 1010.59 1010.31 1010.06 1009.85 1009.67 1009.52 1009.37 1009.23 1009.09 1008.93 1008.75 1008.54 1008.31 1008.05 1007.77 1007.49 1007.19 1006.91 1006.63 1006.38 1006.15 1005.95 1005.77 1005.63 1005.52 1005.43 1005.35 1005.28 1005.22 1005.15 1005.07
1011.78 1011.46 1011.11 1010.73 1010.36 1010.00 1009.67 1009.39 1009.15 1008.96 1008.80 1008.67 1008.57 1008.46 1008.35 1008.21 1008.04 1007.84 1007.61 1007.35 1007.06 1006.76 1006.46 1006.16 1005.88 1005.63 1005.40 1005.20 1005.04 1004.91 1004.80 1004.71 1004.65 1004.59 1004.53 1004.47 1004.40 1004.33
1010.68 1010.32 1009.92 1009.52 1009.13 1008.78 1008.46 1008.21 1008.01 1007.86 1007.75 1007.68 1007.61 1007.53 1007.43 1007.30 1007.12 1006.90 1006.64 1006.36 1006.05 1005.73 1005.42 1005.12 1004.86 1004.62 1004.43 1004.27 1004.15 1004.07 1004.00 1003.96 1003.93 1003.90 1003.87 1003.84 1003.80 1003.74
1009.50 1009.12 1008.70 1008.29 1007.90 1007.55 1007.27 1007.04 1006.87 1006.77 1006.70 1006.65 1006.61 1006.56 1006.47 1006.34 1006.16 1005.93 1005.66 1005.35 1005.03 1004.71 1004.41 1004.13 1003.89 1003.69 1003.54 1003.43 1003.36 1003.32 1003.31 1003.31 1003.32 1003.34 1003.35 1003.36 1003.35 1003.34
1008.29 1007.89 1007.47 1007.06 1006.68 1006.35 1006.08 1005.89 1005.75 1005.67 1005.63 1005.61 1005.59 1005.55 1005.47 1005.34 1005.16 1004.93 1004.67 1004.37 1004.06 1003.76 1003.48 1003.24 1003.04 1002.89 1002.78 1002.72 1002.71 1002.72 1002.75 1002.80 1002.86 1002.91 1002.97 1003.02 1003.07 1003.11
1007.09 1006.69 1006.27 1005.87 1005.50 1005.19 1004.95 1004.77 1004.65 1004.59 1004.57 1004.57 1004.56 1004.53 1004.46 1004.34 1004.18 1003.96 1003.71 1003.44 1003.17 1002.90 1002.67 1002.47 1002.33 1002.23 1002.18 1002.17 1002.20 1002.26 1002.34 1002.42 1002.52 1002.61 1002.71 1002.81 1002.90 1003.01
Thickness
5666 5664 5661 5662 5660 5659 5657 5656 5652 5652 5656 5660 5660 5661 5659 5659 5660 5661 5664 5666 5666 5668 5671 5673 5676 5679 5681 5684 5686 5688 5689 5690 5692 5694 5695 5697 5698 5700
5660 5657 5654 5656 5655 5653 5651 5650 5648 5646 5647 5652 5651 5653 5651 5650 5652 5653 5656 5658 5660 5662 5664 5667 5669 5672 5675 5678 5681 5683 5685 5687 5689 5691 5692 5694 5696 5697
5656 5654 5650 5648 5648 5647 5646 5644 5643 5641 5639 5643 5645 5646 5642 5641 5643 5645 5648 5651 5656 5657 5658 5659 5662 5665 5668 5671 5674 5677 5680 5683 5685 5687 5689 5691 5693 5695
5652 5649 5646 5645 5641 5639 5638 5637 5636 5634 5632 5632 5635 5636 5636 5635 5635 5637 5641 5646 5648 5650 5651 5652 5654 5657 5660 5664 5667 5671 5674 5677 5680 5683 5686 5688 5690 5692
5648 5645 5642 5639 5635 5635 5631 5631 5631 5630 5627 5627 5628 5630 5630 5630 5629 5630 5634 5635 5639 5643 5644 5645 5647 5650 5652 5656 5660 5664 5668 5671 5675 5677 5680 5683 5686 5688
5644 5641 5638 5635 5631 5628 5626 5623 5622 5621 5621 5620 5622 5624 5624 5625 5623 5623 5626 5630 5632 5635 5638 5640 5641 5642 5645 5649 5653 5656 5660 5664 5668 5672 5675 5678 5681 5684
5641 5638 5635 5631 5626 5621 5620 5619 5616 5614 5615 5615 5616 5616 5617 5615 5616 5617 5618 5620 5623 5626 5629 5633 5636 5639 5641 5643 5645 5649 5653 5657 5661 5666 5670 5673 5676 5679
5638 5635 5632 5628 5623 5615 5611 5608 5604 5604 5606 5605 5607 5607 5606 5607 5607 5606 5608 5610 5612 5619 5619 5623 5628 5632 5636 5639 5643 5644 5647 5650 5654 5659 5663 5667 5671 5674
5635 5631 5629 5628 5620 5617 5612 5605 5601 5598 5594 5595 5597 5598 5599 5599 5597 5597 5598 5599 5601 5606 5608 5612 5618 5623 5629 5634 5636 5637 5639 5642 5647 5651 5656 5660 5665 5669
5632 5628 5624 5620 5618 5611 5607 5605 5603 5601 5597 5592 5592 5592 5592 5590 5589 5588 5588 5591 5594 5597 5599 5602 5609 5615 5622 5626 5628 5630 5633 5636 5640 5644 5649 5653 5658 5662
5629 5626 5621 5617 5611 5603 5599 5599 5598 5597 5595 5592 5588 5586 5583 5581 5579 5579 5582 5584 5589 5594 5597 5597 5602 5607 5613 5618 5622 5624 5627 5629 5633 5637 5642 5647 5651 5655
5628 5624 5617 5611 5606 5598 5595 5594 5593 5592 5591 5589 5585 5582 5580 5579 5575 5573 5576 5578 5582 5587 5592 5590 5594 5597 5602 5611 5616 5619 5621 5624 5627 5630 5635 5639 5643 5647
5623 5621 5618 5608 5600 5593 5588 5587 5587 5584 5582 5582 5582 5582 5581 5579 5577 5575 5573 5572 5575 5580 5584 5584 5585 5588 5591 5599 5606 5611 5615 5619 5622 5625 5628 5632 5636 5640
5616 5615 5612 5602 5595 5589 5585 5583 5579 5573 5575 5578 5578 5578 5578 5576 5576 5574 5571 5569 5570 5572 5573 5574 5576 5578 5582 5588 5595 5601 5606 5610 5615 5620 5625 5628 5630 5634
5611 5608 5601 5595 5589 5587 5584 5578 5573 5572 5574 5574 5575 5575 5574 5573 5570 5568 5567 5565 5565 5566 5568 5568 5569 5572 5574 5579 5585 5591 5595 5601 5606 5612 5618 5622 5627 5630
5605 5602 5595 5590 5585 5582 5581 5579 5575 5573 5572 5570 5570 5570 5569 5567 5564 5563 5562 5561 5562 5565 5567 5566 5565 5566 5569 5573 5578 5583 5588 5592 5599 5604 5609 5615 5620 5626
5597 5596 5596 5594 5591 5587 5584 5581 5576 5572 5569 5566 5564 5563 5562 5560 5559 5559 5558 5557 5557 5560 5563 5564 5564 5564 5565 5567 5572 5577 5582 5586 5591 5596 5600 5606 5614 5619
5585 5591 5591 5590 5587 5584 5580 5577 5573 5569 5566 5562 5560 5558 5557 5556 5556 5556 5555 5553 5554 5556 5558 5559 5559 5559 5561 5566 5567 5571 5576 5581 5585 5589 5593 5599 5607 5613
5581 5587 5587 5585 5582 5579 5576 5572 5570 5566 5562 5559 5556 5555 5553 5552 5551 5551 5551 5550 5551 5552 5554 5555 5554 5554 5556 5563 5570 5568 5571 5576 5579 5583 5587 5594 5600 5607
5585 5585 5583 5580 5577 5573 5570 5567 5565 5562 5558 5555 5553 5552 5550 5549 5549 5548 5549 5548 5549 5549 5550 5551 5551 5552 5554 5558 5563 5567 5565 5569 5573 5577 5582 5588 5594 5599
5585 5582 5578 5575 5571 5568 5564 5561 5559 5556 5554 5552 5551 5550 5549 5547 5547 5547 5547 5546 5544 5546 5548 5550 5551 5549 5551 5552 5556 5562 5565 5565 5569 5572 5576 5580 5586 5592
5577 5574 5571 5567 5564 5561 5557 5554 5553 5552 5550 5549 5548 5548 5547 5545 5545 5544 5544 5544 5544 5545 5547 5548 5548 5547 5547 5549 5553 5558 5562 5563 5564 5565 5568 5573 5580 5586
5567 5564 5561 5559 5557 5553 5551 5548 5547 5547 5546 5545 5545 5543 5542 5542 5541 5541 5541 5541 5542 5543 5543 5545 5545 5545 5546 5548 5551 5555 5559 5560 5562 5564 5567 5568 5571 5576